Tracking 19199 objects as of 25-Jun-2018
HD Live streaming from Space Station
objects crossing your sky now

FENGYUN 1C DEB

Track FENGYUN 1C DEB now!
10-day predictions


NORAD ID: 38829
Int'l Code: 1999-025EVV
Perigee: 852.5 km
Apogee: 916.9 km
Inclination: 99.0 °
Period: 102.5 minutes
Semi major axis: 7255 km
RCS: 0.0012 m2 (small)
Launch date: May 10, 1999
Source: People's Republic of China (PRC)
Launch site: Taiyaun Space Center, China (TSC)

Note: This is SATELLITE DEBRIS
aabbcc
Your satellite tracking list
Your tracking list is empty




NASA's NSSDC Master Catalog

Two Line Element Set (TLE):
1 38829U 99025EVV 18175.54628610 +.00000059 +00000-0 +63909-4 0  9994
2 38829 099.0108 209.8198 0044394 113.1146 247.4709 14.04708936257949
Source of the keplerian elements: AFSPC